User: anonymous   Login
Location: Unspecified
(0.0000°N, 0.0000°E)
Time: 10:39:23
(UTC+00:00)
Language:

CLOUDSAT - Orbit

View from above orbital plane
View from above orbital plane
View from above satellite
View from above satellite

Ground track
Ground track

The orbit data is extracted from the following two-line orbital elements,

1 29107U 06016A   16041.52255439  .00000288  00000-0  74066-4 0  9994
2 29107  98.2222 346.6012 0001879 101.7865 258.3544 14.57123197520683
Epoch (UTC): 10 February 2016 12:32:28
Eccentricity: 0.0001879
inclination: 98.2222°
perigee height: 701 km
apogee height: 704 km
right ascension of ascending node: 346.6012°
argument of perigee: 101.7865°
revolutions per day: 14.57123197
mean anomaly at epoch: 258.3544°
orbit number at epoch: 52068

The dashed part of the orbit path shows where the satellite is in the earth's shadow,  

DLR